sat.trackr.live / text

‹ back to catalog

STARLINK-3958

NORAD 52535 · 2022-051C

PAYLOAD ACTIVE UNKNOWN

§ Identity

Operator
Country
US
Launch date
2022-05-13
Launch site
AFWTR
Launch vehicle
Mass (kg)
RCS (m²)

Purposes: comms

External: N2YO · Heavens-Above · Gunter

§ Orbital elements

Epoch: 2026-09-20T04:29:08.724192Z

Period
93.90 min
Inclination
53.1601°
Eccentricity
0.0001071
Mean motion
15.33552167 rev/d
Perigee alt
464.5 km
Apogee alt
466.0 km
Semi-major
6,843.4 km
B*
1.9760e-5
RAAN
323.3735°
Arg perigee
76.6371°
Mean anomaly
283.4750°
Rev number
24,097

§ Raw data

STARLINK-39581 52535U 22051C   26263.18690653  .00000277  00000+0  19760-4 0  99992 52535  53.1601 323.3735 0001071  76.6371 283.4750 15.33552167240972

JSON: /api/v1/satellites/52535 · /tle

For live sub-satellite position, see the globe view (requires WebGL).

§ Visibility from observer

Set your observer location to see the next 7 days of passes ≥ 10°. The values pass through the URL so the page stays shareable.

No JS? Fill the form by hand. The geolocation button needs JavaScript.